FW3813 Weather Reports


Display with metric or nautical units.
time (UTC)temp
F
wind
direction
speed
MPH
gust
MPH
rain 1hr
in
rain 24hr
in
rain mn
in
humidity
%
barometer
mb
20260902024100 54 309 3.0 8.0 0.00 0.00 0.00 58 1014.5
20260902023558 54 309 4.0 8.0 0.00 0.00 0.00 58 1014.4
20260902023106 55 300 2.0 7.0 0.00 0.00 0.00 57 1014.4
20260902022558 55 304 3.0 7.0 0.00 0.00 0.00 56 1014.4
20260902022101 55 300 3.0 10.0 0.00 0.00 0.00 56 1014.3
20260902021604 55 302 4.0 11.0 0.00 0.00 0.00 56 1014.3
20260902021058 55 282 5.0 11.0 0.00 0.00 0.00 57 1014.3
20260902020558 55 275 6.0 11.0 0.00 0.00 0.00 57 1014.3
20260902020104 55 307 6.0 10.0 0.00 0.00 0.00 57 1014.3
20260902015557 55 275 5.0 9.0 0.00 0.00 0.00 57 1014.4
20260902015057 55 293 4.0 9.0 0.00 0.00 0.00 57 1014.3
20260902014604 55 331 5.0 10.0 0.00 0.00 0.00 57 1014.4
20260902014101 56 275 6.0 10.0 0.00 0.00 0.00 57 1014.5
20260902013558 56 265 6.0 10.0 0.00 0.00 0.00 57 1014.5
20260902013110 56 281 6.0 10.0 0.00 0.00 0.00 56 1014.4
20260902012558 56 302 5.0 11.0 0.00 0.00 0.00 56 1014.5
20260902012057 56 297 5.0 13.0 0.00 0.00 0.00 56 1014.4
20260902011602 56 268 7.0 13.0 0.00 0.00 0.00 56 1014.5
20260902011058 56 313 8.0 14.0 0.00 0.00 0.00 56 1014.4
20260902010558 56 290 5.0 14.0 0.00 0.00 0.00 56 1014.4
20260902010105 56 298 5.0 19.0 0.00 0.00 0.00 56 1014.5
20260902005558 56 289 11.0 19.0 0.00 0.00 0.00 56 1014.3
20260902005057 56 272 11.0 20.0 0.00 0.00 0.00 55 1014.3
20260902004602 57 265 11.0 20.0 0.00 0.00 0.00 54 1014.3
20260902004058 58 281 11.0 18.0 0.00 0.00 0.00 52 1014.2
20260902003600 59 267 9.0 17.0 0.00 0.00 0.00 49 1014.2
20260902003110 60 297 6.0 16.0 0.00 0.00 0.00 45 1014.1
20260902002557 60 250 4.0 15.0 0.00 0.00 0.00 42 1013.9
20260902002058 60 296 6.0 15.0 0.00 0.00 0.00 42 1014.1
20260902001606 60 302 6.0 15.0 0.00 0.00 0.00 41 1014.1
20260902001058 61 292 4.0 12.0 0.00 0.00 0.00 41 1014.1
20260902000558 61 291 4.0 12.0 0.00 0.00 0.00 40 1014.1
20260902000059 61 298 4.0 12.0 0.00 0.00 0.00 39 1014.2
20260901235559 62 241 4.0 13.0 0.00 0.00 0.00 38 1014.3
20260901235100 63 205 3.0 13.0 0.00 0.00 0.00 34 1014.4
20260901234613 64 116 5.0 16.0 0.00 0.00 0.00 26 1014.3
20260901234058 65 186 3.0 16.0 0.00 0.00 0.00 26 1014.2
20260901233602 65 183 6.0 22.0 0.00 0.00 0.00 25 1014.3
20260901233104 65 159 7.0 25.0 0.00 0.00 0.00 26 1014.2
20260901232558 63 114 13.0 25.0 0.00 0.00 0.00 26 1013.9
20260901232058 64 225 11.0 23.0 0.00 0.00 0.00 27 1014.2
20260901231605 65 167 6.0 20.0 0.00 0.00 0.00 26 1014.3
20260901231058 65 103 2.0 12.0 0.00 0.00 0.00 27 1014.1
20260901230557 64 184 4.0 16.0 0.00 0.00 0.00 28 1014.2
20260901230105 64 135 6.0 22.0 0.00 0.00 0.00 27 1014.3
20260901225558 65 150 10.0 22.0 0.00 0.00 0.00 27 1014.2
20260901225057 65 139 12.0 21.0 0.00 0.00 0.00 27 1014.2
20260901224604 65 161 5.0 20.0 0.00 0.00 0.00 27 1014.3
20260901224057 65 146 9.0 20.0 0.00 0.00 0.00 26 1014.4
20260901223601 65 98 5.0 26.0 0.00 0.00 0.00 27 1014.3
20260901223105 64 128 6.0 26.0 0.00 0.00 0.00 27 1014.3
20260901222557 64 232 14.0 24.0 0.00 0.00 0.00 27 1014.3
20260901222057 64 139 6.0 20.0 0.00 0.00 0.00 27 1014.2
20260901221608 64 103 6.0 28.0 0.00 0.00 0.00 26 1014.3
20260901221057 65 281 7.0 28.0 0.00 0.00 0.00 26 1014.4
20260901220557 66 152 9.0 23.0 0.00 0.00 0.00 25 1014.1
20260901220118 65 206 10.0 29.0 0.00 0.00 0.00 24 1014.1
20260901215558 65 148 7.0 29.0 0.00 0.00 0.00 24 1014.1
20260901215058 66 152 12.0 29.0 0.00 0.00 0.00 23 1014.1
20260901214604 67 150 13.0 28.0 0.00 0.00 0.00 24 1014.0
20260901214059 66 188 11.0 27.0 0.00 0.00 0.00 24 1014.1
20260901213559 66 213 10.0 27.0 0.00 0.00 0.00 23 1014.0
20260901213112 66 93 6.0 22.0 0.00 0.00 0.00 26 1014.2
20260901212601 66 142 5.0 21.0 0.00 0.00 0.00 27 1014.1
20260901212101 66 189 6.0 18.0 0.00 0.00 0.00 28 1014.2
20260901211604 65 291 7.0 18.0 0.00 0.00 0.00 31 1014.3
20260901211101 64 117 8.0 15.0 0.00 0.00 0.00 33 1014.3
20260901210601 64 300 4.0 12.0 0.00 0.00 0.00 34 1014.4
20260901210104 63 295 3.0 15.0 0.00 0.00 0.00 34 1014.4
20260901205602 62 252 6.0 15.0 0.00 0.00 0.00 37 1014.5
20260901205106 63 297 5.0 13.0 0.00 0.00 0.00 35 1014.6
20260901204601 65 265 7.0 13.0 0.00 0.00 0.00 34 1014.8
20260901204102 64 249 6.0 13.0 0.00 0.00 0.00 35 1014.5
20260901203559 65 65 2.0 9.0 0.00 0.00 0.00 33 1014.6
20260901203106 65 28 4.0 23.0 0.00 0.00 0.00 34 1014.7
20260901202557 66 41 4.0 23.0 0.00 0.00 0.00 33 1014.7
20260901202057 66 96 7.0 16.0 0.00 0.00 0.00 29 1014.7
20260901201604 65 92 9.0 16.0 0.00 0.00 0.00 29 1014.7
20260901201104 65 338 4.0 10.0 0.00 0.00 0.00 35 1014.9
20260901200601 64 9 4.0 13.0 0.00 0.00 0.00 35 1014.9
20260901200104 64 317 5.0 13.0 0.00 0.00 0.00 35 1015.0
20260901195600 65 99 6.0 13.0 0.00 0.00 0.00 31 1015.0
20260901195101 65 58 5.0 12.0 0.00 0.00 0.00 34 1015.1
20260901194607 65 205 4.0 12.0 0.00 0.00 0.00 34 1015.2
20260901194102 65 163 3.0 20.0 0.00 0.00 0.00 33 1015.3
20260901193601 64 191 3.0 20.0 0.00 0.00 0.00 28 1015.4
20260901193116 64 140 6.0 19.0 0.00 0.00 0.00 25 1015.3
20260901192557 65 128 8.0 18.0 0.00 0.00 0.00 26 1015.4
20260901192101 64 195 10.0 21.0 0.00 0.00 0.00 32 1015.3
20260901191606 63 173 8.0 25.0 0.00 0.00 0.00 37 1015.2
20260901191101 62 153 9.0 25.0 0.00 0.00 0.00 35 1015.4
20260901190602 62 136 11.0 25.0 0.00 0.00 0.00 38 1015.3
20260901190112 62 155 14.0 25.0 0.00 0.00 0.00 41 1015.3
20260901185602 62 175 11.0 23.0 0.00 0.00 0.00 41 1015.5
20260901185101 62 152 6.0 23.0 0.00 0.00 0.00 43 1015.5
20260901184608 62 159 12.0 23.0 0.00 0.00 0.00 41 1015.4
20260901184058 62 148 10.0 34.0 0.00 0.00 0.00 42 1015.5
20260901183558 63 136 6.0 34.0 0.00 0.00 0.00 41 1015.4